sat.trackr.live / text

‹ back to catalog

GARAI-A

NORAD 62635 · 2025-009AC

PAYLOAD ACTIVE UNKNOWN

§ Identity

Operator
Country
SPN
Launch date
2025-01-14
Launch site
AFWTR
Launch vehicle
Mass (kg)
RCS (m²)

External: N2YO · Heavens-Above · Gunter

§ Orbital elements

Epoch: 2026-09-22T21:06:56.623392Z

Period
94.82 min
Inclination
97.3883°
Eccentricity
0.0002171
Mean motion
15.18667282 rev/d
Perigee alt
508.4 km
Apogee alt
511.4 km
Semi-major
6,888.0 km
B*
1.8385e-4
RAAN
343.4941°
Arg perigee
28.9109°
Mean anomaly
331.2245°
Rev number
9,360

§ Raw data

GARAI-A1 62635U 25009AC  26265.87982203  .00003744  00000+0  18385-3 0  99932 62635  97.3883 343.4941 0002171  28.9109 331.2245 15.18667282 93604

JSON: /api/v1/satellites/62635 · /tle

For live sub-satellite position, see the globe view (requires WebGL).

§ Visibility from observer

Set your observer location to see the next 7 days of passes ≥ 10°. The values pass through the URL so the page stays shareable.

No JS? Fill the form by hand. The geolocation button needs JavaScript.

§ Radio — SatNOGS DB

ModeDescriptionDownlinkUplink
BPSK S-band telemetry 2.241 GHz

1 transmitter · refreshed weekly from db.satnogs.org